Regional Weather Roundup
Issued by NWS Wakefield, VA

Home | Current Version | Previous Version | Graphics & Text | Print | Product List | Glossary On
Versions: 1 2 3 4 5 6 7 8 9 10 11 12 13 14 15 16 17 18 19 20 21 22 23 24 25 26 27 28 29 30 31 32 33 34 35 36 37 38 39 40 41 42 43 44 45 46 47 48 49 50
118
ASUS41 KAKQ 251115
RWRAKQ

REGIONAL WEATHER ROUNDUP
NATIONAL WEATHER SERVICE WAKEFIELD VA
700 AM EDT THU AUG 25 2016

Note: "fair" indicates few or no clouds below 12,000 feet with no
significant weather and/or obstructions to visibility. * = Denotes
station may not report precipitation (e.g., rain,snow,etc.),
thunder or fog.

VAZ042-051-052>054-056-251200-
NORTHERN VIRGINIA

CITY           SKY/WX    TMP DP  RH WIND       PRES   REMARKS
WASH NATIONAL  MOCLDY    71  66  84 S10       30.12S
DULLES         CLOUDY    68  63  84 S6        30.12S
FORT BELVOIR   PTCLDY    68  65  88 VRB3      30.12S
QUANTICO       MOCLDY    71  65  81 SW8       30.13S
FREDERICKSBRG* PTCLDY    68  65  90 S3        30.13S
STAFFORD*      CLOUDY    66  63  89 SE3       30.17S
WARRENTON      PTCLDY    69  62  78 SW5       30.12S
CULPEPER*      MOCLDY    69  67  92 S3        30.13S
MANASSAS*      NOT AVBL
LEESBURG*      CLOUDY    68  66  94 CALM      30.13S
WINCHESTER     CLOUDY    72  66  83 SW7       30.10S
FRONT ROYAL*   FAIR      70  66  88 S5        30.11S
LURAY*         FAIR      70  70 100 CALM      30.13F
$$

VAZ048-049-060>072-079>083-251200-
CENTRAL AND SOUTH CENTRAL VIRGINIA

CITY           SKY/WX    TMP DP  RH WIND       PRES   REMARKS
RICHMOND       MOCLDY    66  65  96 S6        30.17R
CHESTERFIELD*  FAIR      66  54  63 CALM      30.18R
PETERSBURG*    MOCLDY   N/A N/A N/A CALM      30.18R
HANOVER        PTCLDY    69  65  86 S6        30.18R
TAPPAHANNOCK*  PTCLDY    67  67 100 S3        30.17R
QUINTON*       FAIR      64  64  97 CALM      30.17R
CHARLOTTSVILLE CLOUDY    70  66  87 S8        30.14R
GORDONSVILLE*  FAIR      68  66  94 SW5       30.14R
ORANGE*          N/A     68  68 100 S5        30.15S
LOUISA*        PTCLDY    72  66  83 S3        30.14S
BUMPASS*       FAIR      65  64  98 CALM      30.15S
FARMVILLE*     PTCLDY   N/A N/A N/A SW3       30.16S
CREWE*         FAIR      63  63 100 CALM      30.17S
FORT PICKETT*  NOT AVBL
CHASE CITY*    CLOUDY    67  65  94 CALM      30.19R
CLARKSVILLE*   CLOUDY    66  66 100 CALM      30.19R
SOUTH HILL*    CLOUDY    64  64  97 CALM      30.24R
LAWRENCEVILLE* PTSUNNY   64  64 100 CALM      30.18R
EMPORIA*       PTCLDY    61  61 100 CALM      30.19R FOG
$$

VAZ088>098-251200-
SOUTHEAST VIRGINIA

CITY           SKY/WX    TMP DP  RH WIND       PRES   REMARKS
NORFOLK        CLEAR     70  68  93 S5        30.16S
VIRGINIA BEACH PTCLDY    72  64  76 CALM      30.16S
NORFOLK NAVAL  PTCLDY    70  67  90 S3        30.18R
WEST POINT*    PTCLDY    70  68  94 S3        30.19R
SALUDA*        FAIR      69  69 100 CALM      30.16R
NEWPORT NEWS   CLEAR     71  69  93 SW3       30.17R
LANGLEY AFB    PTCLDY    68  67  96 W3        30.16S
FORT EUSTIS    CLEAR     71  69  93 CALM      30.15R
WILLIAMSBURG*  CLEAR     72  70  94 CALM      30.18R
HR EXEC AP*    FAIR      57  55  94 CALM      30.20R
FRANKLIN*      CLEAR     61  60  96 CALM      30.18R
US460-WAKEFLD  CLEAR     63  61  93 CALM      30.18R
$$

VAZ020-022-025-037-045-251200-
WEST CENTRAL AND SOUTHWEST VIRGINIA

CITY           SKY/WX    TMP DP  RH WIND       PRES   REMARKS
STAUNTON*      CLOUDY    67  65  94 S3        30.18S
WAYNESBORO*    FAIR      67  65  95 CALM      30.17F
HOT SPRINGS VA CLOUDY    65  65 100 W12       30.28R FOG
LYNCHBURG      PTCLDY    67  65  93 SW3       30.19R
DANVILLE       CLEAR     65  64  97 CALM      30.19R
SOUTH BOSTON*  FAIR      64  62  95 CALM      30.18S
MARTINSVILLE   CLEAR     64  63  97 CALM      30.22S FOG
ROANOKE        CLOUDY    69  67  93 CALM      30.21R
BLACKSBURG     FOG       65  65 100 CALM      30.27S VSB 1
DUBLIN*        PTCLDY    65  65 100 CALM      30.26R
MARION*        CLOUDY    63  61  96 W5        30.30S FOG
HILLSVILLE*    PTCLDY    65  65 100 S3        30.26S FOG
RICHLANDS*     PTSUNNY   68  67  98 SW3       30.28R
WISE*          CLEAR     68  66  94 SW5       30.28S
ABINGDON*      MOCLDY    67  67 100 CALM      30.26S FOG
$$

MDZ021>025-VAZ099-100-251200-
SOUTHERN MARYLAND AND THE DELMARVA PENINSULA

CITY           SKY/WX    TMP DP  RH WIND       PRES   REMARKS
PATUXENT RIVER MOCLDY    71  67  87 SW10      30.14S
BAY BRIDGE APT CLEAR     73  68  83 S9        30.13S
LEONARDTOWN    CLEAR     70  64  83 SW6       30.17R
DOVER          PTCLDY    67  67 100 S5        30.13S
GEORGETOWN     CLEAR     64  62  93 CALM      30.16R
EASTON         PTCLDY    70  70 100 S5        30.18R
CAMBRIDGE      CLEAR     63  63 100 SE3       30.14S
SALISBURY      CLEAR     64  63  96 CALM      30.15F
OCEAN CITY     CLEAR     64  62  93 CALM      30.16F
WALLOPS ISLAND CLEAR     68  64  87 SW5       30.17R
ACCOMACK*      PTCLDY    67  64  89 S5        30.17R
$$

NCZ012>017-030>032-251200-
NORTH CENTRAL AND EASTERN NORTH CAROLINA

CITY           SKY/WX    TMP DP  RH WIND       PRES   REMARKS
ROANOKE RAPIDS FAIR      59  59 100 CALM      30.18R
RALEIGH        MOCLDY    67  64  90 CALM      30.19R
ELIZABETH CITY FOG       66  66 100 CALM      30.17S VSB 3/4
AHOSKIE*       FOG       61  60  98 CALM      30.18R VSB<1/4
EDENTON*       CLEAR     68  68 100 CALM      30.18R
CURRITUCK*       N/A     67  67 100 CALM      30.18S
KILL DEVIL HLS CLEAR     70  68  95 CALM      30.16S
MANTEO         MOCLDY    69  68  98 CALM      30.17S
CAPE HATTERAS  CLEAR     71  68  90 NE5       30.16R
TARBORO*       FAIR      63  62  99 CALM      30.18S FOG
GOLDSBORO      CLEAR     66  66 100 CALM      30.16R
WASHINGTON     CLEAR     66  64  96 CALM      30.18R
GREENVILLE     FOG       64  64 100 CALM      30.19R VSB 3/4
NEW BERN       FOG       70  69  97 CALM      30.18R VSB 1/2
WILMINGTON     CLEAR     70  68  93 CALM      30.15R
$$

VAZ048-251200-
ELSEWHERE

CITY           SKY/WX    TMP DP  RH WIND       PRES   REMARKS
HARRISBURG PA  CLOUDY    69  65  86 SE5       30.09F
BALTIMORE      MOCLDY    67  64  90 CALM      30.12S
ANNAPOLIS      CLEAR     72  67  84 S8        30.12S
ANDREWS AFB    CLEAR     69  65  88 S9        30.12S
PHILADELPHIA   MOCLDY    69  61  75 S6        30.13F
HENDERSON NC   CLOUDY    65  62  91 CALM      30.19R
GREENSBORO     MOCLDY    68  63  84 SW6       30.20R
ROCKY MOUNT    CLEAR     62  62 100 CALM      30.18R
$$

VAZ100-251200-
MARINE

STATION/POSITION TIME  TEMP    WIND        PRES    WAVE   SWELL
                       AIR SEA DIR/SP/G            HT/PER HT/PER
                 (UTC) (F)     (DEG/KT/KT) (MB)    (FT/S) (FT/S)
BRANDYWINE LGT   1012   72     220/ 13/ 14   N/A
CAPE MAY NJ      1000   69 74  180/  3/  5 1020.5F
LEWES DE         1000   67 73  180/  4/  7 1020.6F
OCEAN-CITY-INLET 1000   70 74  300/  2/  2 1021.7R
WACHAPREAGUE VA  1000   71 78  250/  2/  2 1021.0F
THOMAS POINT MD  1100   74 81  200/ 15/ 18 1021.4S
GOOSES REEF MD   1000   75 82  210/ 14/ 16 1020.6F   1/ 3
COVE POINT MD    1000   72     230/ 12/ 14 1021.0R
SOLOMONS ISLAND  1000   72 83  210/  6/  8   N/A
BISHOPS HEAD MD  1000   76 77  210/  9/ 12 1021.0S
PINEY POINT MD   1000          220/  4/  6   N/A
POTOMAC MD       1000   74 82  230/ 12/ 16 1019.8S   1/ 2
CAMBRIDGE MD     1000   69 83   CALM  /  1 1019.7F
LEWISETTA VA     1000   71 81  240/ 10/ 12 1020.3R
RAPPAHANNOCK LGT 1000          220/ 12/ 13 1021.4F
STINGRAY PT      1000   76 83  160/ 10/ 14 1021.0F   1/ 2
YORK RVR RNG VA  1000   75     230/  9/ 10 1020.6S
YORKTOWN VA      1000   72 82  210/  8/  9 1020.6S
JAMESTOWN VA     1000   72 84  210/  6/  8   N/A
DOMINION TERM VA 1000   75     220/  8/  9 1021.2R
KIPTOPEKE VA     1000      78  220/  7/  9   N/A
CHES BAY BRIDGE  1000   75 77  190/  8/ 10 1021.0R
CAPE HENRY VA    1000   72     200/  6/  8   N/A
WILLOUBY STN VA  1000   74     250/  7/  9   N/A
CAPE HENRY BUOY  1012      78                N/A     2/11   2/11
1ST LANDING BUOY 1000   75 78  230/  6/  8 1021.2R   1/ 4
CAPE CHARLES BUO 1026      77                N/A     2/11   2/11
OFFSHORE WE BUOY 1021      80                N/A     3/11   2/11
64NM E OF VA BCH 1050   79 81  230/  2/  4 1021.2R   3/10   3/10
DUCK PIER NC     1000   76 78  160/  1/  2 1020.7S
44100 DUCK FRF   1005      80                N/A     3/11   2/11
44056 DUCK FRF   1011      78                N/A     2/11   2/11
OREGON INLET NC  1000   74 80   40/  1/  1 1020.9F
HATTERAS NC      1000   76 80   40/  4/  5 1020.6R
DIAMOND SHLS NC  1050   80 84   80/  6/ 10 1021.0R   3/10   3/10
CAPE LOOKOUT NC  1100   80      50/  6/  7 1020.7R
$$




USA.gov is the U.S. government's official web portal to all federal, state and local government web resources and services.